Location: Observatoire
(46.1952°N, 5.3391°E)
Time: 22:04:56
(UTC+01:00)

Tiros 1 despin weight - Pass Details

Date: 26 February 2026
Orbit: 556 x 593 km, 48.2° (Epoch: 7 March)

Event Time Altitude Azimuth Distance (km) Brightness Sun altitude
Rises 15:05:39 0° 274° (W) 2,752 ? 27.6°
Reaches altitude 10° 15:07:56 10° 277° (W) 1,850 ? 27.3°
Maximum altitude 15:12:07 65° 360° (N) 615 ? 26.9°
Drops below altitude 10° 15:16:18 10° 83° (E) 1,838 ? 26.4°
Sets 15:18:34 0° 86° (E) 2,731 ? 26.2°
